Погода в Трёхгорном

Россия / Челябинская область     54°49′04″N   58°26′47″E
темп.,
°C
ветер,
м/с
пор.,
м/с
влажн.,
%
обл.,
%
осадки,
мм/ч
давл.,
гПа
погр.,
м
26 июня, вс
вс2623:00+11зсз22975 1.7 100618
02:00+9з229991 0.5 100828
05:00+9зсз119657 1.3 100817
08:00+10сз489049 0.4 1008771
11:00+13сз5860100 0.9 10081709
14:00+11ссз5871100 0.2 10091268
17:00+9ссз4880100 0.4 10111034
20:00+8сз4881100 0.1 1012935
27 июня, пн
пн2723:00+7сз3784100 0.2 1014790
02:00+6сз3784100 0.0 1014788
05:00+6сз368598 0.0 1015730
08:00+6сз3584100 0.1 1016691
11:00+11сз366391 0.1 10141138
14:00+16зсз574347 0.0 10121506
17:00+17зсз57536 0.0 10111330
20:00+14зюз51270100 0.0 10091191
28 июня, вт
вт2823:00+12з41197100 0.4 1008872
02:00+9ссз4898100 1.4 1009604
05:00+6сз2593100 1.5 1011359
08:00+5ссз2696100 0.4 1012617
11:00+5сз2491100 0.7 1012701
14:00+5ссз3490100 0.3 1012744
17:00+5ссз3777100 0.6 10131334
20:00+5ссз4885100 0.3 10141050
29 июня, ср
ср2923:00+3сз399878 0.8 1014588
02:00+2зсз2898100 0.1 1014473
05:00+2зсз2799100 0.3 1014541
08:00+3зсз2899100 0.1 1014587
11:00+4сз3797100 0.3 1014751
14:00+6зсз2895100 0.0 1014652
17:00+10сз4885100 0.1 1012910
20:00+10зсз310896 0.3 1012578
30 июня, чт
чт3023:00+7зюз239850 0.4 101257
02:00+7зюз2297100 0.1 101134
05:00+6зюз229878 0.1 101027
08:00+9зсз2591100 0.0 1009539
11:00+11зсз476499 0.4 10081528
14:00+12зсз466680 0.9 10061411
17:00+11з478368 2.1 1006871
20:00+8з2496100 2.5 1006275